Temp
19 19 19 19 19 19 19 19 19 19 19 19 19 19 18 18 18 18 18 17 17 17 17 17 17 17 17 17 17 17 17 17 17 17 17 17 17 17 17 17 17 17
19 19 19 19 19 19 19 19 19 19 18 18 18 18 18 18 18 18 17 17 17 17 17 17 17 17 17 17 17 17 17 17 17 17 17 17 17 17 17 17 17 16
19 19 19 19 19 19 19 19 19 18 18 18 18 18 18 18 18 17 17 17 17 17 17 17 17 17 17 17 17 17 17 16 17 17 16 16 16 16 17 17 17 16
19 19 19 19 19 19 19 19 19 18 18 18 18 18 18 18 17 17 17 17 17 17 17 17 17 17 17 17 16 16 16 16 16 16 16 15 15 16 16 17 17 17
19 19 19 19 19 19 19 19 18 18 18 18 18 18 18 18 18 17 17 17 17 17 17 17 17 17 16 16 16 16 16 16 16 15 15 14 14 14 15 16 16 16
19 19 19 19 19 19 19 19 18 18 18 18 18 18 18 18 18 17 17 17 17 17 17 17 17 16 16 16 16 16 16 16 16 15 14 14 14 14 15 15 16 16
20 20 20 19 19 19 19 19 19 18 18 18 18 18 18 18 17 17 17 17 17 17 17 17 16 16 16 16 16 16 16 16 16 15 15 14 14 14 15 15 15 15
20 20 19 20 20 19 19 19 19 18 18 18 18 18 18 17 17 17 17 17 17 17 17 17 16 16 16 16 16 16 15 15 15 15 15 15 15 15 15 15 15 15
20 20 19 19 19 19 19 19 18 18 18 18 18 18 17 17 17 17 17 17 17 17 17 16 16 16 16 16 16 15 15 14 14 15 15 15 15 15 15 15 15 15
19 19 19 19 20 19 19 19 19 19 18 18 18 18 17 17 17 17 16 17 17 16 16 16 16 16 16 16 16 15 14 14 14 15 15 15 15 15 15 15 15 15
19 19 19 20 20 19 19 19 19 19 19 19 18 18 17 17 17 16 16 16 16 16 16 16 16 16 15 15 15 15 14 14 14 15 16 15 15 15 14 14 14 14
19 19 19 20 20 19 19 19 19 19 19 19 18 17 17 17 16 16 16 16 16 16 16 16 16 15 15 15 15 14 14 14 15 16 16 15 14 14 14 14 14 13
19 19 19 19 19 19 19 19 19 19 19 18 18 17 17 17 16 16 16 16 16 16 16 16 15 15 15 15 14 14 14 15 16 16 16 15 14 14 14 14 13 13
19 19 19 19 19 19 19 19 19 19 18 18 17 17 17 16 16 16 16 16 16 16 16 15 15 15 15 15 14 14 15 15 16 16 15 14 13 13 13 13 13 12
19 19 19 19 19 19 19 18 18 18 18 17 17 16 16 16 16 16 16 16 16 16 15 15 15 15 15 14 14 15 15 16 15 14 14 13 13 13 13 12 12 12
19 19 19 19 19 19 18 18 18 18 17 17 17 17 16 16 16 16 16 16 16 15 15 15 15 15 14 14 15 15 15 15 14 13 13 13 13 13 13 12 12 12
19 19 19 19 19 18 18 18 18 18 17 17 17 16 16 16 16 16 15 15 15 15 15 15 14 14 14 15 15 15 14 14 13 13 13 13 13 13 12 12 12 12
19 19 19 19 18 18 18 18 18 17 17 17 16 16 16 16 16 15 15 15 15 15 15 14 14 14 14 15 14 14 14 14 13 13 13 13 13 13 12 12 12 12
19 19 19 18 18 18 18 18 18 17 17 17 16 16 16 15 15 15 15 15 15 15 14 14 14 14 14 14 14 14 14 14 13 13 13 13 13 12 12 12 12 12
18 18 18 18 18 18 18 18 18 17 17 17 17 16 16 16 15 15 15 15 15 15 14 14 14 14 14 14 14 14 14 14 14 14 13 13 13 13 13 13 12 11
18 18 18 18 18 18 17 18 18 17 17 17 17 16 16 16 15 15 15 15 15 15 15 15 14 14 13 13 13 13 13 13 13 14 14 14 14 13 13 13 12 11
18 18 17 17 17 17 17 17 17 17 17 16 16 16 15 15 15 15 15 15 14 15 15 15 14 13 13 13 13 13 13 13 13 13 14 14 13 13 12 12 11 10
18 17 17 17 17 17 17 17 17 17 17 16 16 16 16 16 15 15 15 14 14 15 15 14 13 13 13 13 13 13 13 13 13 13 13 13 13 12 12 11 11 10
18 17 17 17 17 17 17 17 17 17 16 16 16 16 16 16 15 15 14 14 15 15 14 13 13 13 13 13 13 12 12 12 12 13 13 13 12 11 11 10 10 10
18 18 18 18 18 17 16 17 17 16 16 16 16 16 16 15 15 15 15 15 14 14 13 13 13 13 13 13 12 12 12 12 13 13 12 12 11 10 10 10 10 9
18 18 18 18 18 17 16 17 17 16 16 16 16 16 16 15 15 15 15 15 14 14 13 13 13 13 13 12 12 12 12 13 12 12 12 11 10 10 10 10 9 9
Height
1538 1538 1538 1538 1537 1537 1537 1536 1536 1535 1535 1534 1534 1534 1533 1533 1533 1533 1533 1533 1533 1532 1532 1532 1532 1532 1531 1531 1530 1530 1529 1528 1528 1526 1525 1523 1522 1521 1520 1520 1519 1519
1540 1539 1539 1539 1539 1538 1538 1537 1537 1536 1536 1535 1535 1535 1534 1534 1534 1534 1534 1534 1534 1533 1533 1533 1533 1532 1532 1531 1530 1530 1529 1528 1528 1526 1524 1523 1522 1521 1520 1519 1519 1518
1541 1541 1540 1540 1539 1539 1538 1537 1537 1536 1536 1536 1535 1535 1535 1535 1535 1535 1535 1535 1534 1534 1534 1533 1533 1533 1532 1532 1531 1530 1529 1528 1527 1526 1524 1523 1522 1521 1520 1519 1518 1518
1542 1542 1541 1541 1540 1540 1539 1538 1538 1537 1537 1536 1536 1536 1535 1535 1535 1535 1535 1535 1535 1534 1534 1533 1533 1532 1532 1531 1531 1530 1529 1528 1527 1526 1524 1523 1522 1521 1520 1519 1518 1517
1543 1543 1541 1541 1540 1540 1539 1539 1538 1538 1537 1537 1537 1536 1536 1536 1536 1536 1535 1535 1534 1534 1534 1533 1533 1532 1531 1531 1530 1530 1529 1528 1527 1526 1525 1524 1522 1521 1520 1519 1518 1517
1543 1543 1542 1541 1541 1540 1540 1539 1539 1539 1538 1538 1537 1537 1537 1536 1536 1536 1536 1535 1535 1534 1534 1533 1533 1532 1532 1531 1530 1530 1529 1528 1527 1526 1525 1524 1523 1521 1520 1519 1518 1517
1543 1543 1542 1542 1542 1541 1541 1540 1540 1539 1539 1538 1538 1537 1537 1537 1537 1536 1536 1535 1535 1535 1534 1534 1533 1533 1532 1532 1531 1530 1529 1528 1527 1526 1525 1524 1522 1521 1520 1519 1518 1517
1543 1543 1543 1543 1542 1542 1541 1540 1540 1540 1539 1539 1538 1537 1537 1537 1537 1536 1536 1535 1535 1535 1534 1534 1534 1533 1532 1531 1531 1530 1529 1528 1527 1526 1525 1523 1522 1521 1520 1519 1518 1517
1544 1543 1543 1543 1542 1542 1541 1541 1540 1540 1539 1538 1538 1537 1537 1537 1537 1536 1536 1536 1535 1535 1534 1534 1534 1533 1532 1531 1530 1530 1529 1528 1527 1526 1524 1523 1522 1521 1520 1519 1518 1517
1544 1544 1543 1543 1543 1542 1541 1541 1541 1540 1539 1538 1538 1537 1537 1537 1537 1536 1536 1536 1535 1535 1534 1534 1533 1532 1532 1531 1530 1530 1529 1527 1527 1525 1524 1522 1521 1520 1519 1519 1518 1517
1544 1544 1544 1543 1543 1542 1542 1541 1541 1540 1539 1538 1537 1537 1537 1536 1537 1536 1536 1536 1535 1535 1534 1533 1533 1532 1532 1531 1530 1529 1528 1527 1526 1525 1523 1522 1521 1520 1519 1519 1518 1517
1545 1544 1544 1544 1543 1542 1542 1541 1540 1540 1539 1538 1537 1537 1537 1536 1536 1536 1536 1535 1535 1534 1534 1533 1533 1533 1532 1531 1530 1529 1528 1527 1525 1524 1522 1521 1520 1520 1519 1518 1518 1517
1545 1545 1544 1544 1543 1542 1542 1541 1540 1539 1538 1537 1537 1537 1537 1537 1536 1536 1535 1535 1535 1534 1534 1534 1533 1532 1532 1531 1530 1528 1527 1525 1524 1522 1521 1521 1520 1520 1519 1518 1517 1517
1545 1545 1545 1544 1544 1543 1542 1541 1540 1539 1538 1537 1537 1537 1537 1537 1536 1536 1536 1535 1535 1535 1534 1534 1533 1532 1531 1530 1529 1527 1526 1524 1522 1521 1521 1520 1520 1519 1519 1518 1517 1517
1546 1545 1545 1544 1544 1543 1542 1541 1540 1539 1538 1537 1537 1537 1537 1536 1536 1536 1536 1536 1535 1535 1534 1533 1533 1532 1530 1529 1528 1526 1525 1523 1522 1521 1521 1520 1520 1519 1519 1518 1517 1516
1546 1545 1544 1544 1543 1542 1542 1541 1540 1539 1538 1538 1537 1537 1537 1536 1536 1536 1536 1536 1535 1535 1534 1533 1532 1531 1530 1529 1527 1526 1524 1523 1522 1521 1521 1520 1520 1519 1518 1517 1516 1515
1546 1545 1544 1543 1542 1541 1540 1540 1539 1538 1538 1538 1537 1537 1537 1536 1536 1536 1535 1535 1535 1534 1534 1532 1531 1531 1529 1528 1527 1525 1524 1523 1522 1521 1520 1520 1519 1518 1517 1516 1515 1514
1545 1544 1542 1542 1541 1540 1539 1539 1539 1538 1537 1537 1537 1536 1536 1535 1535 1535 1535 1535 1534 1533 1533 1532 1531 1530 1528 1527 1526 1525 1524 1523 1522 1521 1520 1520 1519 1517 1516 1515 1514 1513
1544 1542 1541 1540 1539 1539 1538 1538 1538 1537 1537 1537 1536 1535 1535 1535 1535 1534 1534 1534 1533 1532 1531 1530 1530 1529 1528 1527 1526 1525 1525 1523 1522 1521 1520 1519 1518 1516 1515 1514 1513 1511
1541 1540 1539 1539 1538 1538 1537 1537 1537 1536 1536 1536 1535 1535 1535 1535 1534 1534 1533 1533 1532 1531 1530 1529 1529 1528 1527 1527 1526 1525 1524 1523 1522 1521 1519 1518 1517 1515 1514 1512 1511 1510
1538 1537 1537 1537 1537 1537 1536 1536 1536 1536 1535 1535 1535 1535 1535 1534 1534 1533 1533 1532 1531 1530 1529 1529 1528 1528 1527 1526 1526 1525 1524 1523 1522 1520 1519 1518 1516 1514 1512 1511 1510 1508
1536 1535 1534 1535 1535 1536 1536 1535 1535 1535 1535 1535 1534 1534 1534 1534 1533 1533 1532 1532 1531 1530 1529 1528 1527 1527 1527 1526 1526 1525 1524 1522 1521 1519 1518 1516 1515 1513 1511 1510 1509 1507
1535 1535 1536 1536 1536 1535 1535 1535 1535 1535 1534 1534 1534 1534 1533 1533 1533 1533 1532 1532 1530 1529 1529 1528 1527 1527 1527 1526 1525 1524 1523 1521 1520 1518 1516 1515 1513 1511 1510 1508 1508 1506
1536 1538 1539 1539 1538 1536 1535 1535 1535 1535 1534 1534 1534 1533 1533 1533 1532 1532 1532 1531 1530 1530 1529 1528 1527 1527 1527 1526 1525 1524 1522 1520 1519 1517 1515 1513 1512 1510 1509 1508 1507 1506
1537 1537 1537 1537 1537 1537 1537 1535 1535 1534 1534 1533 1533 1533 1532 1532 1532 1532 1532 1531 1530 1530 1529 1528 1528 1527 1526 1526 1524 1523 1522 1520 1518 1516 1514 1512 1511 1510 1509 1507 1506 1505
1535 1536 1536 1535 1535 1536 1536 1535 1534 1534 1533 1532 1532 1532 1532 1532 1532 1531 1531 1531 1531 1530 1529 1529 1528 1527 1526 1525 1524 1523 1521 1519 1517 1515 1513 1512 1511 1509 1508 1507 1506 1505
Wind_Speed
11 11 11 11 11 11 10 10 10 10 10 10 9 9 10 10 10 9 8 9 8 6 5 5 4 3 3 3 3 4 5 6 8 9 8 7 6 6 6 6 6 6
12 11 10 10 10 11 11 11 10 10 10 9 8 7 7 8 8 7 6 5 5 3 3 2 1 3 4 5 6 6 6 7 9 10 7 6 5 4 4 3 6 8
11 10 9 9 10 11 11 10 10 9 9 8 7 6 6 6 6 5 4 3 2 2 2 2 2 2 3 6 7 8 9 11 11 9 4 3 4 4 3 1 5 9
11 9 7 5 6 9 9 9 8 7 7 6 5 5 5 4 4 3 3 3 2 1 0 1 3 5 5 6 7 9 11 13 11 6 3 5 7 7 6 4 1 6
9 6 4 4 4 6 7 7 6 5 5 5 3 3 3 3 2 2 3 4 3 2 2 2 5 7 7 8 9 11 11 11 8 4 4 6 7 9 9 7 4 2
7 7 7 7 6 5 5 3 3 3 3 3 2 2 3 2 1 3 3 3 2 3 3 4 5 5 7 10 11 10 9 10 8 4 3 4 6 9 10 8 6 5
8 8 7 6 5 4 2 1 1 1 2 2 1 2 2 1 1 3 3 3 3 4 5 6 6 6 9 9 8 9 12 14 14 9 5 5 6 9 9 7 6 6
7 7 7 6 3 2 2 2 2 2 3 4 3 2 3 2 1 2 3 4 4 5 5 5 6 8 10 8 7 11 15 17 18 16 12 9 9 9 8 6 6 6
8 7 8 5 2 1 1 2 2 3 4 5 5 4 3 2 2 2 3 4 4 5 4 5 7 9 11 9 8 11 15 17 18 18 15 13 11 9 7 5 6 6
10 8 7 5 3 0 1 0 1 2 3 4 5 5 3 2 1 1 2 3 3 3 4 6 7 9 11 11 10 11 14 16 18 18 16 13 12 9 6 6 7 7
11 9 7 4 2 1 1 1 2 2 2 3 4 5 4 2 2 3 3 2 3 3 4 6 8 10 11 11 11 12 13 16 19 18 14 11 10 8 6 5 6 7
10 8 6 3 1 1 1 2 3 4 3 2 2 3 3 2 3 3 3 3 3 4 5 7 9 10 11 11 12 12 14 18 20 16 11 9 8 5 4 5 6 7
8 6 4 2 1 1 1 3 4 6 5 2 1 3 3 4 4 4 5 4 3 5 6 8 9 10 11 11 12 14 18 20 18 13 9 6 5 3 4 5 5 7
7 6 5 3 2 0 1 4 5 7 6 2 3 3 3 4 5 5 6 4 4 5 6 8 9 10 11 12 14 18 21 18 13 9 6 3 3 3 5 6 6 8
7 6 5 4 2 1 2 4 6 7 6 3 4 4 4 4 5 5 5 5 4 5 6 7 9 11 12 15 18 19 17 11 7 5 4 2 3 5 6 7 7 10
9 8 7 5 2 1 2 5 7 7 5 3 4 5 5 4 4 3 3 3 4 5 7 8 10 12 14 17 17 14 10 6 4 3 2 2 3 4 5 5 7 10
11 10 9 6 3 1 2 5 7 6 4 3 4 5 4 2 2 2 2 2 3 6 7 9 11 13 15 15 12 9 7 5 2 0 1 3 4 5 6 8 10 13
13 11 10 7 4 1 2 5 6 5 4 3 3 4 3 2 3 3 3 3 5 7 9 10 11 13 13 11 8 8 7 6 4 4 4 5 6 7 9 12 14 16
15 13 11 8 4 1 2 4 5 4 4 4 3 3 3 4 4 3 4 5 7 9 10 11 12 12 10 8 7 8 7 7 7 8 8 9 10 11 14 16 16 15
16 15 12 9 5 3 1 2 3 3 3 2 2 2 3 4 3 3 5 7 9 10 11 11 11 9 8 7 8 8 8 9 9 10 10 11 13 15 16 16 14 11
18 16 14 10 7 4 3 3 2 2 1 0 1 1 3 4 4 6 7 8 9 10 11 10 9 8 7 7 8 9 9 10 11 12 13 13 13 13 14 13 10 8
18 17 15 11 7 5 3 3 2 1 2 1 1 3 4 5 5 7 8 9 10 11 11 9 7 7 6 8 10 11 12 13 15 16 17 16 14 12 12 11 8 8
18 15 13 9 6 5 3 2 2 2 1 1 2 4 5 6 6 7 8 10 12 11 9 8 7 6 6 9 13 16 17 19 21 22 20 19 16 12 10 9 8 9
14 10 8 6 3 3 3 2 2 1 1 2 3 4 4 5 6 7 9 11 11 8 7 8 9 8 9 13 17 19 21 23 24 24 21 19 16 12 10 8 8 9
9 7 6 4 3 3 3 1 0 0 2 3 4 4 4 5 7 9 10 10 7 6 7 9 10 11 13 15 17 19 22 24 24 22 20 18 15 13 11 10 9 9
7 6 5 4 3 4 3 1 1 2 3 5 5 5 6 7 8 8 7 7 9 10 10 10 10 12 14 15 16 19 22 23 22 21 19 17 15 13 12 11 10 9
Wind_Direction
111 106 95 87 83 81 79 82 88 89 88 93 99 102 99 92 91 93 95 101 107 120 130 129 145 184 219 263 281 289 300 311 322 330 326 308 294 265 248 230 205 200
109 104 96 88 79 75 78 82 85 83 80 82 84 87 82 76 78 79 83 100 112 126 122 100 142 211 236 267 284 296 307 319 329 335 325 297 289 284 275 234 208 210
115 109 101 90 79 74 76 77 77 78 79 81 82 80 73 67 68 74 88 111 126 130 90 44 352 277 274 283 290 300 315 329 336 341 339 323 336 338 345 103 202 218
111 106 105 104 88 77 76 74 70 69 71 74 77 73 69 71 78 90 102 122 147 170 171 335 328 328 325 313 307 312 324 333 339 353 26 19 8 5 8 20 213 226
103 98 113 149 137 103 93 85 71 60 54 55 58 53 55 68 102 129 135 155 182 243 286 304 322 329 331 328 325 327 332 337 341 2 33 25 8 358 358 358 352 295
115 119 125 131 135 127 110 93 70 56 42 40 41 25 28 50 121 159 174 191 222 281 293 299 311 319 326 331 333 341 357 5 6 6 15 20 359 344 348 351 352 355
134 141 147 148 154 170 197 233 297 323 316 338 21 357 344 356 149 173 199 239 274 284 285 292 304 320 333 343 356 8 17 21 20 14 349 335 333 335 345 354 360 3
156 166 178 184 187 213 241 240 263 299 300 300 305 305 307 307 262 225 246 271 281 281 288 305 318 331 342 358 14 8 8 11 11 8 355 339 332 337 350 3 7 2
176 184 186 197 229 275 222 219 258 291 291 288 293 295 288 284 282 264 256 261 271 287 313 333 332 337 349 360 3 356 358 2 360 356 351 344 339 343 357 8 6 359
190 197 201 220 248 198 124 98 285 295 287 279 283 278 262 255 243 201 212 242 271 309 329 333 333 339 349 353 349 344 347 350 350 347 342 337 337 341 353 4 5 4
201 203 208 215 205 138 91 45 31 1 329 293 276 260 248 234 185 174 189 242 288 319 321 320 329 335 338 339 337 337 338 339 339 339 334 329 331 338 348 357 4 10
201 199 199 199 181 146 88 55 34 20 8 324 267 240 224 158 146 189 206 231 274 294 303 311 320 323 324 326 328 327 328 331 333 335 333 326 327 336 343 342 353 5
194 192 197 204 208 177 74 38 29 28 24 21 181 194 184 141 142 192 211 222 259 278 293 303 306 309 313 318 321 321 324 328 331 336 339 332 327 336 338 333 337 340
194 199 204 213 224 192 38 30 33 32 32 69 157 179 180 151 152 185 209 226 257 278 293 299 300 304 309 313 316 320 324 328 334 345 359 5 348 345 340 331 320 316
204 210 211 212 225 341 25 34 35 32 40 88 151 173 190 190 187 201 220 239 263 286 300 301 301 304 307 312 318 323 329 339 358 17 32 35 357 348 342 331 316 309
215 219 221 221 236 313 28 38 34 34 50 92 140 158 177 202 214 220 232 253 283 299 303 301 300 302 307 314 321 331 345 7 39 57 45 351 334 333 324 307 299 299
227 226 225 227 241 282 34 38 31 39 68 109 128 136 151 189 227 237 225 251 298 304 302 299 300 306 314 323 336 354 7 11 19 357 300 293 292 296 293 285 286 292
232 231 225 225 236 262 42 40 38 53 97 138 150 149 161 195 216 229 237 271 306 312 310 308 310 319 330 344 5 17 8 345 308 285 285 285 281 279 281 283 287 292
237 231 222 221 226 206 64 50 52 77 124 158 182 191 202 211 215 238 272 298 317 322 320 318 322 334 352 12 23 21 10 345 318 300 292 289 285 280 280 284 289 293
238 227 219 219 212 186 124 76 69 89 133 179 233 221 216 224 240 287 308 317 324 326 327 328 337 356 17 28 24 18 12 0 346 332 316 303 294 289 289 292 295 299
234 224 218 215 203 183 151 114 90 77 96 69 299 267 263 272 293 310 314 320 326 334 337 339 354 17 27 27 23 14 8 3 356 347 338 326 315 305 302 302 303 310
232 227 219 212 197 177 155 125 101 86 88 53 308 285 286 291 297 305 313 322 333 341 345 350 9 27 28 28 24 15 10 5 357 352 348 342 336 325 312 310 314 318
230 232 226 217 193 167 156 137 122 119 101 10 311 295 298 299 298 304 315 328 337 345 355 13 29 30 26 23 16 8 4 1 356 353 350 346 344 338 323 319 326 326
232 236 235 234 210 168 164 154 140 132 55 5 328 311 310 304 303 312 320 330 345 3 29 45 44 34 26 16 6 0 357 354 353 351 348 347 350 354 348 341 342 335
240 238 235 246 250 202 190 184 138 44 18 9 342 327 325 314 312 321 328 342 13 44 54 53 41 26 18 8 358 354 351 349 350 350 351 355 1 6 5 359 354 342
240 236 239 252 242 210 209 242 345 9 9 7 350 333 325 321 327 341 359 31 56 59 51 44 28 12 6 358 351 349 348 348 350 352 357 3 5 4 2 2 2 353